Date,TemperatureHighF,TemperatureAvgF,TemperatureLowF,DewpointHighF,DewpointAvgF,DewpointLowF,HumidityHigh,HumidityAvg,HumidityLow,PressureMaxIn,PressureMinIn,WindSpeedMaxMPH,WindSpeedAvgMPH,GustSpeedMaxMPH,PrecipitationSumIn
2013-7-1,67.7,64.4,61.1,64.6,62.6,60.0,98,94,86,30.51,30.38,8,2,8,0.57
2013-7-2,79.0,66.8,60.4,72.6,64.2,59.7,98,92,78,30.58,30.49,5,1,5,0.01
2013-7-3,87.5,72.5,62.8,75.1,68.2,62.2,99,88,59,30.62,30.55,14,2,14,0.59
2013-7-4,85.0,78.0,69.0,74.8,71.2,68.1,98,81,60,30.63,30.56,10,4,10,1.27
2013-7-5,84.8,75.0,67.5,75.7,71.1,66.9,99,88,65,30.61,30.51,13,2,13,0.78
2013-7-6,88.1,76.4,67.9,73.1,68.5,63.9,97,79,51,30.61,30.49,10,3,10,0.00
2013-7-7,84.1,76.2,68.5,73.9,69.6,65.5,98,81,61,30.52,30.39,14,5,14,0.08
2013-7-8,84.3,73.6,67.6,75.4,68.9,64.7,98,86,64,30.51,30.43,10,3,10,0.74
2013-7-9,83.2,73.4,66.9,75.2,70.4,66.3,99,91,71,30.51,30.37,9,1,9,0.10
2013-7-10,87.4,76.8,68.5,76.1,70.6,64.0,98,82,62,30.37,30.16,20,6,20,0.03
2013-7-11,78.3,69.9,60.7,66.7,61.7,57.5,98,76,57,30.49,30.27,13,4,13,0.00
2013-7-12,76.7,66.7,59.1,66.4,61.8,58.5,99,86,61,30.65,30.49,6,1,6,0.00
2013-7-13,79.8,70.6,59.0,71.1,66.0,58.4,99,86,70,30.72,30.63,8,2,8,0.00
2013-7-14,89.5,77.1,64.2,77.8,69.8,63.6,99,80,55,30.77,30.70,7,2,7,0.00
2013-7-16,90.1,83.5,68.5,74.0,69.8,66.2,96,66,47,30.73,30.66,7,1,7,0.00
2013-7-17,92.0,80.1,66.7,81.4,72.7,66.1,98,80,51,30.69,30.52,16,3,16,0.14
2013-7-18,88.3,80.0,72.4,79.6,74.3,67.9,95,83,67,30.55,30.40,24,4,24,1.08
2013-7-19,91.3,81.9,70.5,77.1,71.4,64.1,90,72,49,30.40,30.17,26,10,26,0.05
2013-7-20,79.8,71.6,67.0,70.7,67.3,64.2,97,87,59,30.35,30.17,14,4,14,0.57
2013-7-21,75.7,68.3,59.7,66.0,62.2,58.5,98,82,60,30.48,29.95,7,2,7,0.00
2013-7-22,80.4,68.4,57.8,68.0,63.1,57.0,98,84,61,29.97,29.75,4,1,8,0.00
2013-7-23,83.4,73.0,66.9,71.0,66.7,58.0,98,82,52,29.75,29.56,10,3,16,0.05
2013-7-24,69.6,62.2,51.0,60.0,53.9,50.0,97,75,55,30.02,29.65,11,3,16,0.00
2013-7-25,72.4,61.3,46.6,59.0,52.9,46.0,98,77,46,30.11,30.02,6,1,9,0.00
2013-7-26,76.4,63.6,48.3,63.0,56.2,48.0,99,79,52,30.10,29.99,3,0,7,0.00
2013-7-27,80.2,67.4,53.8,69.0,62.8,53.0,98,86,66,29.99,29.81,6,1,10,0.16
2013-7-28,74.5,67.7,59.0,67.0,63.2,58.1,97,86,67,30.45,29.79,6,1,8,0.03
2013-7-29,71.6,62.6,54.6,60.7,56.9,51.8,98,83,52,30.60,29.97,13,4,13,0.03
2013-7-30,77.1,65.6,57.0,64.3,58.8,55.0,98,80,58,30.68,30.60,14,4,14,0.00
2013-7-31,81.2,66.9,53.1,65.1,59.6,52.6,99,80,47,30.63,30.41,8,2,8,0.00